This demonstration page uses our WeatherBlox Daily Observations layout. Learn more.

Hourly Observations for October 8, 2019

Temp ( °F °C ) Dew Point ( °F °C ) Humidity (%) Winds ( mph kmh ) Pressure ( in mb ) Visibility ( mi km ) Precip ( " mm )
12:15 am 00:15 Clear 50 10 41 5 71 71 S 9 15 30.06 1018 10 16.09344 0 0
12:35 am 00:35 Clear 52 11.3 41 4.8 65 65 S 13 20 30.06 1018 10 16.09344 0 0
12:55 am 00:55 Clear 53 11.7 40 4.7 62 62 S 13 20 30.03 1017 10 16.09344 0 0
1:15 am 01:15 Clear 53 11.5 40 4.5 62 62 S 15 24 30.03 1017 10 16.09344 0 0
1:35 am 01:35 Clear 53 11.5 40 4.5 62 62 S 15 24 30.03 1017 10 16.09344 0 0
1:55 am 01:55 Clear 53 11.5 40 4.3 62 62 S 16 26 30.03 1017 10 16.09344 0 0
2:15 am 02:15 Clear 52 11.3 40 4.5 63 63 S 14 22 30.03 1017 10 16.09344 0 0
2:35 am 02:35 Clear 51 10.4 40 4.5 67 67 S 12 19 30 1016 10 16.09344 0 0
2:55 am 02:55 Clear 50 9.9 40 4.3 68 68 S 10 17 30 1016 10 16.09344 0 0
3:15 am 03:15 Clear 49 9.5 40 4.2 70 70 S 10 17 30 1016 10 16.09344 0 0
3:35 am 03:35 Clear 49 9.2 39 4.1 71 71 SSE 9 15 30 1016 10 16.09344 0 0
3:55 am 03:55 Clear 48 9.1 40 4.2 72 72 SSE 13 20 29.97 1015 10 16.09344 0 0
4:15 am 04:15 Clear 48 9 40 4.2 72 72 S 12 19 29.97 1015 10 16.09344 0 0
4:35 am 04:35 Clear 48 8.8 40 4.3 74 74 S 10 17 30 1016 10 16.09344 0 0
4:55 am 04:55 Clear 47 8.4 40 4.3 76 76 S 9 15 30 1016 10 16.09344 0 0
5:15 am 05:15 Clear 47 8.2 40 4.3 77 77 S 9 15 30 1016 10 16.09344 0 0
5:35 am 05:35 Clear 46 8 40 4.3 78 78 S 9 15 30 1016 10 16.09344 0 0
5:55 am 05:55 Clear 45 7.1 39 4.1 81 81 S 6 9 30 1016 10 16.09344 0 0
6:15 am 06:15 Clear 44 6.8 39 4.1 83 83 SSE 6 9 30 1016 10 16.09344 0 0
6:35 am 06:35 Clear 44 6.5 39 4.1 85 85 SSE 6 9 30 1016 10 16.09344 0 0
6:55 am 06:55 Clear 44 6.4 39 4.1 85 85 SSE 6 9 29.97 1015 10 16.09344 0 0
7:15 am 07:15 Clear 43 6.3 39 4.1 86 86 SSE 6 9 29.97 1015 10 16.09344 0 0
7:35 am 07:35 Clear 43 6.1 39 4 87 87 SSE 5 7 29.97 1015 10 16.09344 0 0
7:55 am 07:55 Sunny 43 6.3 40 4.2 87 87 SSE 5 7 29.97 1015 10 16.09344 0 0
8:15 am 08:15 Sunny 45 7.2 40 4.6 84 84 SSE 8 13 29.97 1015 10 16.09344 0 0
8:35 am 08:35 Sunny 47 8.4 41 5 79 79 S 9 15 29.97 1015 10 16.09344 0 0
8:55 am 08:55 Sunny 49 9.5 41 5.2 75 75 S 12 19 29.94 1014 10 16.09344 0 0
9:15 am 09:15 Sunny 51 10.6 41 5 69 69 S 14 22 29.94 1014 10 16.09344 0 0
9:35 am 09:35 Sunny 53 11.7 41 5 64 64 S 18 30 29.94 1014 10 16.09344 0 0
9:55 am 09:55 Sunny 55 12.5 41 4.9 60 60 S 16 26 29.91 1013 10 16.09344 0 0
10:15 am 10:15 Sunny 56 13.5 41 5.1 57 57 S 20 31 29.91 1013 10 16.09344 0 0
10:35 am 10:35 Sunny 58 14.2 42 5.4 56 56 S 20 31 29.91 1013 10 16.09344 0 0
10:55 am 10:55 Sunny 59 15 42 5.5 53 53 S 17 28 29.91 1013 10 16.09344 0 0
11:15 am 11:15 Sunny 60 15.7 42 5.8 52 52 S 16 26 29.88 1012 10 16.09344 0 0
11:35 am 11:35 Sunny 62 16.7 43 5.9 49 49 S 18 30 29.85 1011 10 16.09344 0 0
11:55 am 11:55 Sunny 63 17.3 43 6.1 48 48 S 18 30 29.85 1011 10 16.09344 0 0
12:15 pm 12:15 Sunny 65 18.1 43 6.2 46 46 S 17 28 29.85 1011 10 16.09344 0 0
12:35 pm 12:35 Sunny 66 19 44 6.4 44 44 S 17 28 29.8 1009 10 16.09344 0 0
12:55 pm 12:55 Sunny 67 19.3 44 6.5 43 43 S 18 30 29.8 1009 10 16.09344 0 0
1:15 pm 13:15 Sunny 68 20.1 44 6.5 41 41 S 18 30 29.8 1009 10 16.09344 0 0
1:35 pm 13:35 Sunny 69 20.7 44 6.9 41 41 SSE 16 26 29.77 1008 10 16.09344 0 0
1:55 pm 13:55 Sunny 70 21.1 44 6.9 40 40 S 20 31 29.77 1008 10 16.09344 0 0
2:15 pm 14:15 Sunny 71 21.7 45 7.2 39 39 S 18 30 29.74 1007 10 16.09344 0 0
2:35 pm 14:35 Sunny 72 22.2 45 7.3 38 38 S 20 31 29.71 1006 10 16.09344 0 0
2:55 pm 14:55 Sunny 72 22.2 45 7 38 38 S 18 30 29.71 1006 10 16.09344 0 0
3:15 pm 15:15 Sunny 72 22.4 45 7.1 37 37 S 22 35 29.71 1006 10 16.09344 0 0
3:35 pm 15:35 Sunny 73 22.7 45 7.2 37 37 S 20 31 29.71 1006 10 16.09344 0 0
3:55 pm 15:55 Sunny 73 23 45 7.4 37 37 SSE 18 30 29.71 1006 10 16.09344 0 0
4:15 pm 16:15 Sunny 73 23 46 7.5 37 37 S 17 28 29.71 1006 10 16.09344 0 0
4:35 pm 16:35 Sunny 74 23.1 46 7.5 37 37 S 22 35 29.68 1005 10 16.09344 0 0
4:55 pm 16:55 Sunny 73 23 46 7.6 37 37 S 22 35 29.68 1005 10 16.09344 0 0
5:15 pm 17:15 Sunny 73 23 46 7.7 38 38 S 23 37 29.68 1005 10 16.09344 0 0
5:35 pm 17:35 Sunny 73 22.7 46 7.9 39 39 S 21 33 29.68 1005 10 16.09344 0 0
5:55 pm 17:55 Sunny 73 22.5 46 8 39 39 S 18 30 29.68 1005 10 16.09344 0 0
6:15 pm 18:15 Sunny 71 21.5 47 8.2 43 43 S 14 22 29.68 1005 10 16.09344 0 0
6:35 pm 18:35 Sunny 69 20.6 48 8.8 47 47 SSE 14 22 29.71 1006 10 16.09344 0 0
6:55 pm 18:55 Sunny 69 20.3 48 9 48 48 SSE 15 24 29.71 1006 10 16.09344 0 0
7:15 pm 19:15 Clear 67 19.2 49 9.5 54 54 SSE 12 19 29.71 1006 10 16.09344 0 0
7:35 pm 19:35 Clear 65 18.5 50 9.8 57 57 SSE 13 20 29.71 1006 10 16.09344 0 0
7:55 pm 19:55 Clear 65 18.4 50 9.8 57 57 SSE 13 20 29.71 1006 10 16.09344 0 0
8:15 pm 20:15 Clear 64 17.7 49 9.7 60 60 SSE 13 20 29.71 1006 10 16.09344 0 0
8:35 pm 20:35 Clear 63 17.1 50 9.8 62 62 SSE 13 20 29.74 1007 10 16.09344 0 0
8:55 pm 20:55 Clear 62 16.6 50 9.8 64 64 SSE 14 22 29.77 1008 10 16.09344 0 0
9:15 pm 21:15 Clear 62 16.5 49 9.6 64 64 SSE 13 20 29.74 1007 10 16.09344 0 0
9:35 pm 21:35 Clear 61 16.3 49 9.7 65 65 SSE 12 19 29.77 1008 10 16.09344 0 0
9:55 pm 21:55 Clear 62 16.4 49 9.6 64 64 SSE 14 22 29.77 1008 10 16.09344 0 0
10:15 pm 22:15 Clear 62 16.5 49 9.5 64 64 SSE 16 26 29.77 1008 10 16.09344 0 0
10:35 pm 22:35 Clear 62 16.5 49 9.5 64 64 SSE 17 28 29.74 1007 10 16.09344 0 0
10:55 pm 22:55 Clear 61 16.1 49 9.4 65 65 SSE 16 26 29.74 1007 10 16.09344 0 0
11:15 pm 23:15 Clear 60 15.6 49 9.3 66 66 SSE 13 20 29.74 1007 10 16.09344 0 0
11:35 pm 23:35 Clear 59 15.2 49 9.3 68 68 SSE 14 22 29.74 1007 10 16.09344 0 0
11:55 pm 23:55 Clear 59 15 49 9.5 70 70 SSE 14 22 29.74 1007 10 16.09344 0 0

Powered by AerisWeather